Latest Weather Observations for Christmas Creek

IDW60801

Issued at 8:32 pm WST Friday 22 May 2015 (issued every 30 minutes, with the page automatically refreshed every 10 minutes)

About weather observations | Map of weather stations | Latest weather observations for WA | Other Formats
Station Details ID: 505049 Name: CHRISTMAS CREEK Lat: -22.36 Lon: 119.65 Height: 437.21 m
Data from the previous 72 hours. | See also: Recent months for locations in Western Australia
Date/Time
WST
Temp
°C
App
Temp
°C
Dew
Point
Rel
Hum
%
Delta-T
°C
Wind Press
QNH
hPa
Press
MSL
hPa
Rain
since 9 am
mm
Dir
 
Spd
km/h
Gust
km/h
Spd
kts
Gust
kts
22/08:30pm 18.7 19.4 17.0 90 1.0 ENE 9 13 5 7 1019.9 1018.4 0.0
22/08:26pm 18.7 19.8 17.2 91 0.9 ENE 7 11 4 6 1019.9 1018.4 0.0
22/08:11pm 18.9 20.8 16.6 86 1.4 NW 2 6 1 3 1020.4 1019.0 0.0
22/08:09pm 18.9 20.7 16.5 86 1.5 NW 2 6 1 3 1020.4 1019.0 0.0
22/08:00pm 18.9 21.0 17.1 89 1.1 WNW 2 6 1 3 1020.6 1019.1 0.0
22/07:53pm 19.3 20.9 16.9 86 1.5 N 4 6 2 3 1020.2 1018.7 0.0
22/07:30pm 19.6 20.3 16.2 81 2.1 E 7 13 4 7 1019.6 1018.1 0.0
22/07:00pm 19.4 19.9 16.5 83 1.8 E 9 15 5 8 1019.3 1017.8 0.0
22/06:30pm 19.7 20.6 16.5 82 2.0 NE 7 9 4 5 1019.5 1018.0 0.0
22/06:00pm 19.7 19.3 16.2 80 2.1 NNE 13 17 7 9 1019.2 1017.7 0.0
22/05:30pm 20.4 20.1 16.4 78 2.5 NE 13 17 7 9 1019.1 1017.6 0.0
22/05:00pm 21.5 22.1 15.4 68 3.7 E 6 7 3 4 1019.4 1017.9 0.0
22/04:30pm 21.6 22.0 15.2 67 3.9 ENE 7 11 4 6 1018.9 1017.4 0.0
22/04:00pm 21.7 20.4 14.9 65 4.1 ENE 15 22 8 12 1018.5 1017.0 0.0
22/03:30pm 22.7 20.8 14.2 58 5.1 NE 17 22 9 12 1018.8 1017.3 0.0
22/03:00pm 23.1 21.1 14.0 56 5.4 E 17 22 9 12 1018.4 1016.9 0.0
22/02:30pm 23.3 21.1 13.3 53 5.9 ENE 17 32 9 17 1018.6 1017.1 0.0
22/02:00pm 22.9 21.6 13.6 55 5.5 ENE 13 22 7 12 1018.9 1017.4 0.0
22/01:30pm 22.8 20.8 14.0 57 5.2 E 17 26 9 14 1019.1 1017.6 0.0
22/01:00pm 22.5 20.2 14.0 58 5.0 E 19 24 10 13 1019.5 1018.0 0.0
22/12:30pm 20.7 20.3 17.2 80 2.2 SSE 15 20 8 11 1020.1 1018.6 0.0
22/12:00pm 20.1 20.1 18.1 88 1.3 S 15 24 8 13 1020.8 1019.3 0.0
22/11:30am 20.6 20.6 17.3 81 2.1 ESE 13 19 7 10 1020.9 1019.4 0.0
22/11:05am 19.5 19.2 16.5 83 1.8 ESE 13 19 7 10 1021.2 1019.7 0.0
22/11:00am 19.4 19.2 15.8 80 2.2 E 11 19 6 10 1021.3 1019.8 0.0
22/10:30am 18.5 18.2 16.4 87 1.3 SE 13 19 7 10 1021.6 1020.1 0.0
22/10:00am 17.7 17.5 16.6 93 0.7 SE 13 17 7 9 1022.3 1020.9 0.0
22/09:30am 17.8 17.8 16.3 91 0.9 S 11 26 6 14 1023.2 1021.7 0.0
22/09:28am 17.9 18.3 16.4 91 0.9 SE 9 22 5 12 1023.0 1021.5 0.0
22/09:00am 17.6 17.2 16.1 91 0.9 ESE 13 19 7 10 1021.6 1020.1 5.6
22/08:30am 17.1 16.9 15.8 92 0.8 ESE 11 17 6 9 1021.4 1019.9 5.6
22/08:29am 17.1 17.0 15.9 93 0.7 ESE 11 17 6 9 1021.4 1019.9 5.6
22/08:00am 16.5 16.8 15.9 96 0.4 ESE 9 13 5 7 1021.4 1019.9 5.6
22/07:30am 16.0 16.1 15.6 97 0.2 ESE 9 13 5 7 1021.2 1019.7 5.6
22/07:00am 15.8 15.9 15.5 98 0.2 SSE 9 15 5 8 1020.9 1019.4 5.6
22/06:30am 15.8 15.5 15.5 98 0.2 SSE 11 15 6 8 1020.9 1019.4 5.6
22/06:00am 15.7 15.3 15.3 97 0.2 SSE 11 15 6 8 1020.8 1019.3 5.6
22/05:30am 15.7 15.8 15.4 98 0.2 S 9 13 5 7 1020.7 1019.2 5.6
22/05:00am 15.6 15.3 15.4 99 0.1 SSE 11 17 6 9 1020.1 1018.6 5.6
22/04:30am 15.6 16.0 15.3 98 0.2 SSE 7 11 4 6 1020.2 1018.7 5.4
22/04:22am 15.7 16.1 15.4 98 0.2 SSE 7 11 4 6 1020.1 1018.6 5.4
22/04:00am 15.8 16.5 15.5 98 0.2 SE 6 7 3 4 1020.4 1019.0 5.4
22/03:55am 15.9 17.0 15.6 98 0.2 SE 4 6 2 3 1020.4 1019.0 5.4
22/03:39am 15.8 16.8 15.4 97 0.2 WSW 4 7 2 4 1020.3 1018.9 5.4
22/03:30am 15.8 17.2 15.4 97 0.2 W 2 6 1 3 1020.9 1019.4 5.4
22/03:00am 16.3 16.9 15.4 94 0.5 NW 6 7 3 4 1020.4 1019.0 5.4
22/02:30am 16.2 16.8 15.2 94 0.6 NE 6 7 3 4 1019.6 1018.1 5.4
22/02:00am 16.0 16.9 15.2 95 0.5 ESE 4 7 2 4 1020.0 1018.5 5.4
22/01:30am 15.7 16.2 15.1 96 0.4 S 6 6 3 3 1020.1 1018.6 5.4
22/01:00am 15.6 16.1 15.0 96 0.4 ESE 6 9 3 5 1020.2 1018.7 5.4
22/12:30am 15.5 15.0 14.9 96 0.4 ENE 11 15 6 8 1020.4 1019.0 5.4
22/12:00am 15.6 15.5 14.9 96 0.4 ESE 9 11 5 6 1021.2 1019.7 5.4
 
Date/Time
WST
Temp
°C
App
Temp
°C
Dew
Point
Rel
Hum
%
Delta-T
°C
Wind Press
QNH
hPa
Press
MSL
hPa
Rain
since 9 am
mm
Dir
 
Spd
km/h
Gust
km/h
Spd
kts
Gust
kts
21/11:30pm 15.6 15.1 14.9 96 0.4 SE 11 17 6 9 1021.4 1019.9 5.4
21/11:00pm 15.8 16.2 14.8 94 0.6 SSE 6 9 3 5 1021.9 1020.4 4.4
21/10:30pm 15.8 15.6 14.7 93 0.6 SE 9 17 5 9 1021.7 1020.2 4.2
21/10:00pm 15.6 15.9 14.6 94 0.6 SSE 6 9 3 5 1021.9 1020.4 4.2
21/09:30pm 15.7 15.5 14.6 93 0.6 ESE 9 13 5 7 1021.7 1020.2 4.2
21/09:00pm 15.7 15.9 14.1 90 0.9 E 6 7 3 4 1022.1 1020.6 4.0
21/08:30pm 15.6 15.6 14.1 91 0.9 E 7 11 4 6 1022.0 1020.5 3.8
21/08:00pm 15.7 15.7 14.2 91 0.9 ENE 7 11 4 6 1021.7 1020.2 3.8
21/07:30pm 15.9 15.5 14.1 89 1.0 E 9 15 5 8 1021.4 1019.9 3.8
21/07:00pm 16.0 15.0 14.7 92 0.8 ESE 13 17 7 9 1021.1 1019.6 3.8
21/06:30pm 16.0 15.3 14.4 90 0.9 E 11 19 6 10 1021.1 1019.6 3.6
21/06:00pm 16.3 16.1 14.8 91 0.9 ENE 9 13 5 7 1021.8 1020.3 3.4
21/05:30pm 16.0 14.9 14.2 89 1.0 ENE 13 19 7 10 1021.2 1019.7 3.4
21/05:00pm 16.0 15.4 14.6 91 0.8 E 11 19 6 10 1021.1 1019.6 3.4
21/04:46pm 16.2 14.8 14.6 90 0.9 NE 15 19 8 10 1020.8 1019.3 3.4
21/04:30pm 16.1 15.7 14.1 88 1.2 NE 9 19 5 10 1021.0 1019.5 3.0
21/04:15pm 17.1 16.3 13.9 81 1.9 NE 11 17 6 9 1021.0 1019.5 1.0
21/04:00pm 17.7 17.4 14.3 80 2.0 ENE 9 13 5 7 1020.7 1019.2 0.4
21/03:30pm 17.8 16.5 13.7 77 2.4 ENE 13 19 7 10 1020.3 1018.9 0.4
21/03:00pm 17.3 17.1 14.6 84 1.6 ENE 9 15 5 8 1020.4 1019.0 0.4
21/02:30pm 17.2 15.6 13.9 81 1.9 NNE 15 20 8 11 1020.8 1019.3 0.2
21/02:00pm 17.0 14.5 13.6 80 2.0 NE 19 24 10 13 1020.8 1019.3 0.2
21/01:30pm 19.0 14.6 11.6 62 4.2 NNE 26 35 14 19 1020.3 1018.9 0.0
21/01:00pm 21.6 17.0 8.2 42 7.2 NE 22 30 12 16 1020.7 1019.2 0.0
21/12:30pm 21.8 16.7 7.5 39 7.6 NE 24 30 13 16 1021.0 1019.5 0.0
21/12:00pm 22.3 16.8 7.5 38 7.8 NE 26 35 14 19 1021.6 1020.1 0.0
21/11:30am 22.6 17.7 7.0 36 8.2 NE 22 32 12 17 1021.7 1020.2 0.0
21/11:00am 22.6 18.3 7.0 36 8.2 E 19 26 10 14 1021.9 1020.4 0.0
21/10:30am 21.9 15.8 6.6 37 8.0 E 28 37 15 20 1021.8 1020.3 0.0
21/10:00am 22.3 16.7 7.1 37 8.0 E 26 41 14 22 1022.2 1020.7 0.0
21/09:30am 21.4 15.3 6.8 38 7.6 E 28 39 15 21 1022.2 1020.7 0.0
21/09:00am 20.5 15.6 6.8 41 7.1 E 22 32 12 17 1022.1 1020.6 0.0
21/08:30am 19.8 14.1 6.8 42 6.7 E 26 43 14 23 1022.0 1020.5 0.0
21/08:00am 19.9 15.1 7.2 43 6.6 ESE 22 35 12 19 1022.0 1020.5 0.0
21/07:30am 19.3 15.0 7.2 45 6.3 ESE 19 26 10 14 1021.7 1020.2 0.0
21/07:00am 19.3 14.9 7.2 45 6.2 E 20 37 11 20 1021.3 1019.8 0.0
21/06:30am 19.4 15.0 7.3 45 6.3 ESE 20 30 11 16 1020.8 1019.3 0.0
21/06:00am 19.4 15.2 7.4 45 6.2 ESE 19 28 10 15 1020.4 1019.0 0.0
21/05:30am 19.6 15.4 7.5 45 6.3 ESE 19 28 10 15 1020.0 1018.5 0.0
21/05:00am 19.5 15.3 7.6 46 6.2 ESE 19 32 10 17 1019.6 1018.1 0.0
21/04:30am 17.7 16.0 8.5 55 4.8 SSE 7 11 4 6 1019.9 1018.4 0.0
21/04:00am 17.8 15.8 8.5 54 4.9 SSE 9 13 5 7 1020.1 1018.6 0.0
21/03:30am 18.3 16.3 8.7 53 5.1 SSE 9 11 5 6 1019.7 1018.2 0.0
21/03:00am 19.9 17.2 7.5 44 6.5 SE 11 15 6 8 1019.6 1018.1 0.0
21/02:30am 20.3 18.0 7.3 43 6.8 ESE 9 15 5 8 1019.6 1018.1 0.0
21/02:00am 20.1 17.8 7.6 44 6.5 ESE 9 11 5 6 1019.8 1018.3 0.0
21/01:30am 20.2 17.6 7.7 44 6.6 ESE 11 19 6 10 1019.9 1018.4 0.0
21/01:00am 20.5 17.5 7.6 43 6.8 ESE 13 19 7 10 1020.1 1018.6 0.0
21/12:30am 20.8 17.8 7.5 42 7.0 ESE 13 22 7 12 1020.1 1018.6 0.0
21/12:00am 21.1 17.6 7.4 41 7.2 ESE 15 24 8 13 1020.6 1019.1 0.0
 
Date/Time
WST
Temp
°C
App
Temp
°C
Dew
Point
Rel
Hum
%
Delta-T
°C
Wind Press
QNH
hPa
Press
MSL
hPa
Rain
since 9 am
mm
Dir
 
Spd
km/h
Gust
km/h
Spd
kts
Gust
kts
20/11:30pm 21.3 17.4 7.2 40 7.4 ESE 17 22 9 12 1020.7 1019.2 0.0
20/11:00pm 21.5 17.0 7.0 39 7.6 ESE 20 32 11 17 1020.9 1019.4 0.0
20/10:30pm 21.4 17.5 7.1 39 7.5 ESE 17 26 9 14 1020.7 1019.2 0.0
20/10:00pm 21.2 18.0 7.0 39 7.4 SE 13 19 7 10 1020.8 1019.3 0.0
20/09:30pm 21.6 18.5 7.2 39 7.6 SE 13 20 7 11 1021.1 1019.6 0.0
20/09:00pm 21.8 18.7 7.2 39 7.7 ESE 13 19 7 10 1021.0 1019.5 0.0
20/08:30pm 22.0 18.9 7.1 38 7.8 SE 13 19 7 10 1020.9 1019.4 0.0
20/08:00pm 22.5 19.0 7.2 37 8.1 SE 15 22 8 12 1020.7 1019.2 0.0
20/07:30pm 22.8 19.4 7.5 37 8.1 SE 15 20 8 11 1020.1 1018.6 0.0
20/07:00pm 23.7 21.8 6.6 33 9.0 SSE 6 11 3 6 1020.0 1018.5 0.0
20/06:30pm 24.5 22.3 6.2 31 9.6 E 7 9 4 5 1019.4 1017.9 0.0
20/06:00pm 24.8 22.2 6.2 30 9.8 E 9 11 5 6 1019.0 1017.5 0.0
20/05:30pm 25.6 23.0 6.0 28 10.3 E 9 15 5 8 1018.9 1017.4 0.0
20/05:00pm 26.2 22.8 5.8 27 10.7 E 13 19 7 10 1018.5 1017.0 0.0
20/04:30pm 26.4 22.9 5.6 26 10.9 ENE 13 20 7 11 1018.3 1016.7 0.0
20/04:00pm 26.7 23.3 6.1 27 10.9 E 13 20 7 11 1017.6 1016.1 0.0
20/03:30pm 27.0 22.9 6.1 26 11.1 ESE 17 26 9 14 1017.9 1016.4 0.0
20/03:00pm 26.6 23.5 5.7 26 11.0 E 11 19 6 10 1018.1 1016.5 0.0
20/02:30pm 27.0 23.5 5.6 25 11.3 ENE 13 20 7 11 1018.1 1016.5 0.0
20/02:00pm 26.3 22.9 5.9 27 10.7 ESE 13 20 7 11 1018.1 1016.5 0.0
20/01:30pm 26.4 22.2 5.6 26 10.9 NE 17 24 9 13 1017.8 1016.3 0.0
20/01:00pm 26.1 22.6 5.5 26 10.8 E 13 22 7 12 1018.3 1016.7 0.0
20/12:30pm 26.0 22.0 5.1 26 10.9 ENE 15 26 8 14 1018.7 1017.2 0.0
20/12:00pm 25.6 21.0 5.7 28 10.4 E 19 30 10 16 1018.9 1017.4 0.0
20/11:30am 25.5 20.7 5.8 28 10.3 E 20 32 11 17 1019.4 1017.9 0.0
20/11:00am 24.4 20.0 6.6 32 9.4 E 19 32 10 17 1019.5 1018.0 0.0
20/10:30am 23.2 19.4 7.4 36 8.4 ESE 17 26 9 14 1020.1 1018.6 0.0
20/10:00am 22.5 18.9 8.5 40 7.6 SE 17 24 9 13 1020.3 1018.9 0.0
20/09:30am 21.7 17.7 8.1 41 7.3 ESE 19 24 10 13 1020.6 1019.1 0.0
20/09:00am 20.7 17.2 8.7 46 6.4 ESE 17 22 9 12 1020.6 1019.1 0.0
20/08:30am 19.6 16.9 8.9 50 5.7 ESE 13 20 7 11 1020.1 1018.6 0.0
20/08:00am 18.2 17.1 10.8 62 4.1 SE 7 11 4 6 1020.1 1018.6 0.0
20/07:30am 17.3 16.5 11.8 70 3.1 SE 7 11 4 6 1019.6 1018.1 0.0
20/07:00am 16.6 15.8 11.8 73 2.7 S 7 11 4 6 1019.7 1018.2 0.0
20/06:30am 16.5 15.7 11.1 70 3.0 S 6 7 3 4 1019.4 1017.9 0.0
20/06:00am 17.1 16.1 10.9 67 3.4 SE 7 9 4 5 1019.1 1017.6 0.0
20/05:30am 17.4 16.4 11.0 66 3.5 SSE 7 11 4 6 1018.8 1017.3 0.0
20/05:00am 17.5 16.5 10.9 65 3.6 SE 7 11 4 6 1018.5 1017.0 0.0
20/04:30am 17.7 16.6 10.6 63 3.9 SE 7 9 4 5 1018.3 1016.7 0.0
20/04:00am 17.7 16.3 11.0 65 3.7 ESE 9 13 5 7 1018.1 1016.5 0.0
20/03:30am 17.5 15.9 11.4 67 3.4 SE 11 17 6 9 1018.3 1016.7 0.0
20/03:00am 17.5 15.7 10.9 65 3.6 SSE 11 19 6 10 1018.3 1016.7 0.0
20/02:30am 17.7 16.1 10.2 61 4.1 SSE 9 15 5 8 1018.6 1017.1 0.0
20/02:00am 18.0 16.2 9.5 57 4.6 SSE 9 13 5 7 1018.7 1017.2 0.0
20/01:30am 18.2 16.2 8.8 54 5.0 SSE 9 17 5 9 1018.7 1017.2 0.0
20/01:00am 18.4 16.3 8.4 52 5.3 SSE 9 13 5 7 1018.5 1017.0 0.0
20/12:30am 18.5 16.4 8.4 51 5.3 SSE 9 13 5 7 1018.6 1017.1 0.0
20/12:00am 19.0 16.9 8.2 49 5.7 SSE 9 11 5 6 1018.7 1017.2 0.0
 
Date/Time
WST
Temp
°C
App
Temp
°C
Dew
Point
Rel
Hum
%
Delta-T
°C
Wind Press
QNH
hPa
Press
MSL
hPa
Rain
since 9 am
mm
Dir
 
Spd
km/h
Gust
km/h
Spd
kts
Gust
kts
19/11:30pm 19.3 17.2 8.3 49 5.8 SSE 9 15 5 8 1018.7 1017.2 0.0
19/11:00pm 19.7 16.8 8.0 46 6.2 SSE 13 17 7 9 1018.6 1017.1 0.0
19/10:30pm 19.4 16.7 8.9 50 5.6 SSE 13 17 7 9 1018.8 1017.3 0.0
19/10:00pm 19.9 17.2 8.8 48 5.9 SSE 13 19 7 10 1018.9 1017.4 0.0
19/09:30pm 20.3 16.1 8.2 45 6.4 SE 20 26 11 14 1018.9 1017.4 0.0
19/09:00pm 20.4 17.2 8.5 46 6.3 SSE 15 22 8 12 1019.1 1017.6 0.0

Other Formats:

Comma delimited format used in spreadsheet applications
http://www.bom.gov.au/fwo/IDW60801/IDW60801.99737.axf

JavaScript Object Notation format (JSON) in row-major order
http://www.bom.gov.au/fwo/IDW60801/IDW60801.99737.json